Carbondale, IL

10:52 AM CDT on June 26, 2017 (GMT -0500)
Southern Illinois

Weather History for KMDH - September, 2011

Change the Weather History Date:

Friday, September 16, 2011

  Actual Average Record
Temperature  
Mean Temperature 60 °F -  
Max Temperature 70 °F 79 °F 101 °F (1927)
Min Temperature 52 °F 56 °F 33 °F (1996)
Degree Days  
Heating Degree Days 4    
Growing Degree Days 10 (Base 50)    
Moisture  
Dew Point 44 °F    
Average Humidity 60    
Maximum Humidity 84    
Minimum Humidity 33    
Precipitation  
Precipitation 0.00 in - - ()
Sea Level Pressure  
Sea Level Pressure 30.24 in    
Wind  
Wind Speed 5 mph (ENE)    
Max Wind Speed 8 mph    
Max Gust Speed -    
Visibility 10 miles    
Events      
Averages and records for this station are not official NWS values.
T = Trace of Precipitation, MM = Missing Value Source: NWS Daily Summary

Daily Weather History Graph

Daily Weather History Graph

Search for Another Location

Airport or City:

Trip Planner

Search our weather history database for the weather conditions in past years. The results will help you decide how hot, cold, wet, or windy it might be!

Date:

Astronomy

Sep. 16, 2011 Rise Set
Actual Time 6:39 AM CDT 7:03 PM CDT
Civil Twilight 6:13 AM CDT 7:29 PM CDT
Nautical Twilight 5:42 AM CDT 8:00 PM CDT
Astronomical Twilight 5:10 AM CDT 8:32 PM CDT
Moon 9:00 PM CDT (9/16) 10:38 AM CDT (9/16)
Length of Visible Light 13h 16m
Length of Day
12h 24m
Waning Gibbous, 84% of the Moon is Illuminated
Sep 16
Waning Gibbous
Sep 20
Last Quarter
Sep 27
New
Oct 3
First Quarter
Oct 11
Full

Hourly Weather History & Observations

Time (CDT) Temp. Dew Point Humidity Pressure Visibility Wind Dir Wind Speed Gust Speed Precip Events Conditions
12:52 AM 54.0 °F 44.1 °F 69% 30.26 in 10.0 mi ENE 8.1 mph - N/A   Clear
1:52 AM 54.0 °F 43.0 °F 66% 30.25 in 10.0 mi ENE 6.9 mph - N/A   Clear
2:52 AM 53.1 °F 43.0 °F 69% 30.25 in 10.0 mi ENE 4.6 mph - N/A   Scattered Clouds
3:52 AM 54.0 °F 43.0 °F 66% 30.27 in 10.0 mi North 3.5 mph - N/A   Overcast
4:52 AM 53.1 °F 44.1 °F 71% 30.28 in 10.0 mi Calm Calm - N/A   Overcast
5:52 AM 53.1 °F 43.0 °F 69% 30.28 in 10.0 mi ENE 5.8 mph - N/A   Overcast
6:52 AM 52.0 °F 43.0 °F 71% 30.29 in 10.0 mi ENE 5.8 mph - N/A   Mostly Cloudy
7:52 AM 53.1 °F 43.0 °F 69% 30.31 in 10.0 mi Calm Calm - N/A   Overcast
9:52 AM 57.0 °F 43.0 °F 59% 30.32 in 10.0 mi ENE 5.8 mph - N/A   Mostly Cloudy
10:52 AM 62.1 °F 44.1 °F 52% 30.30 in 10.0 mi East 8.1 mph - N/A   Overcast
12:52 PM 66.0 °F 42.1 °F 42% 30.26 in 10.0 mi Calm Calm - N/A   Clear
1:52 PM 66.9 °F 41.0 °F 39% 30.24 in 10.0 mi NE 8.1 mph - N/A   Partly Cloudy
3:52 PM 69.1 °F 39.9 °F 35% 30.20 in 10.0 mi East 6.9 mph - N/A   Clear
4:52 PM 69.1 °F 39.0 °F 33% 30.21 in 10.0 mi East 4.6 mph - N/A   Mostly Cloudy
5:52 PM 68.0 °F 39.9 °F 36% 30.19 in 10.0 mi NE 5.8 mph - N/A   Mostly Cloudy
6:52 PM 63.0 °F 43.0 °F 48% 30.20 in 10.0 mi NE 5.8 mph - N/A   Clear
7:52 PM 60.1 °F 45.0 °F 57% 30.19 in 10.0 mi NNE 3.5 mph - N/A   Scattered Clouds
8:52 PM 57.9 °F 48.9 °F 72% 30.21 in 10.0 mi Calm Calm - N/A   Mostly Cloudy
9:52 PM 57.0 °F 48.9 °F 74% 30.21 in 10.0 mi Calm Calm - N/A   Overcast
10:52 PM 57.0 °F 51.1 °F 81% 30.20 in 10.0 mi Calm Calm - N/A   Overcast
11:52 PM 55.9 °F 51.1 °F 84% 30.20 in 10.0 mi Calm Calm - N/A   Mostly Cloudy